Tracking 28799 objects as of 18-Apr-2024
HD Live streaming from Space Station
objects crossing your sky now

ONEWEB-0101

Track ONEWEB-0101 now!
10-day predictions
ONEWEB-0101 is classified as:


NORAD ID: 48049
Int'l Code: 2021-025H
Perigee: 1,215.4 km
Apogee: 1,218.4 km
Inclination: 87.9 °
Period: 109.6 minutes
Semi major axis: 7587 km
RCS: Unknown
Launch date: March 25, 2021
Source: United States (US)
Launch site: VOSTOCHNY COSMODROME (VOSTO)
Your satellite tracking list
Your tracking list is empty




NASA's NSSDC Master Catalog

Two Line Element Set (TLE):
1 48049U 21025H   24108.49641659  .00000020  00000-0  20288-4 0  9990
2 48049  87.8892 117.6332 0001975  94.5750 265.5605 13.13468135149709
Source of the keplerian elements: AFSPC